User: anonymous   Login
Location: ??????
(42.0089°N, 44.3281°E)
Time: 17:41:44
(UTC+00:00)
Language:

CZ-2C R/B - Orbit

View from above orbital plane
View from above orbital plane
View from above satellite
View from above satellite

Ground track
Ground track

The orbit data is extracted from the following two-line orbital elements,

1 28480U 04046B   22018.93628576  .00000135  00000-0  66904-4 0  9993
2 28480  98.0544  18.5771 0140809 305.5790 107.9168 14.25781487893137
Epoch (UTC): 18 January 2022 22:28:15
Eccentricity: 0.0140809
inclination: 98.0544°
perigee height: 705 km
apogee height: 907 km
right ascension of ascending node: 18.5771°
argument of perigee: 305.5790°
revolutions per day: 14.25781487
mean anomaly at epoch: 107.9168°
orbit number at epoch: 89313

The dashed part of the orbit path shows where the satellite is in the earth's shadow,  

DLR